KC2G Weather Reports


Display with metric or nautical units.
time (UTC)temp
F
wind
direction
speed
MPH
gust
MPH
rain 1hr
in
rain 24hr
in
rain mn
in
humidity
%
barometer
mb
20260510174554 71 230 1.0 3.0 0.00 0.00 0.00 63 1011.8
20260510173056 72 128 1.0 2.0 0.00 0.00 0.00 66 1011.8
20260510172444 69 77 1.0 3.0 0.00 0.00 0.00 73 1012.4
20260510171554 71 96 2.0 2.0 0.00 0.00 0.00 70 1012.0
20260510170055 69 77 1.0 3.0 0.00 0.00 0.00 73 1012.4
20260510164555 68 91 2.0 3.0 0.00 0.00 0.00 75 1012.5
20260510163054 67 288 1.0 2.0 0.00 0.00 0.00 75 1012.7
20260510161554 65 79 2.0 4.0 0.00 0.00 0.00 82 1013.1
20260510160055 64 69 2.0 3.0 0.00 0.00 0.00 83 1013.0
20260510154554 62 73 2.0 3.0 0.00 0.00 0.00 87 1013.3
20260510153344 61 71 1.0 2.0 0.00 0.00 0.00 90 1013.4
20260510153055 61 71 1.0 2.0 0.00 0.00 0.00 90 1013.4
20260510151555 61 70 2.0 3.0 0.00 0.00 0.00 90 1013.5
20260510150152 60 58 1.0 2.0 0.00 0.00 0.00 93 1013.8
20260510150055 60 58 1.0 2.0 0.00 0.00 0.00 93 1013.8
20260510144555 59 57 2.0 5.0 0.00 0.00 0.00 94 1013.8
20260510143055 58 70 2.0 3.0 0.00 0.00 0.00 96 1013.9
20260510141554 57 115 1.0 2.0 0.00 0.00 0.00 97 1013.9
20260510140055 56 162 0.0 2.0 0.00 0.00 0.00 97 1013.9
20260510134555 56 92 0.0 1.0 0.00 0.00 0.00 100 1013.9
20260510133055 55 20 1.0 2.0 0.00 0.00 0.00 100 1013.9
20260510131555 54 55 1.0 1.0 0.00 0.00 0.00 100 1013.8
20260510130835 53 65 1.0 1.0 0.00 0.00 0.00 99 1013.6
20260510130055 54 69 0.0 1.0 0.00 0.00 0.00 99 1013.6
20260510124554 53 65 1.0 1.0 0.00 0.00 0.00 99 1013.6
20260510123158 53 0.0 0.0 0.00 0.00 0.00 99 1013.5
20260510123055 53 0.0 0.0 0.00 0.00 0.00 99 1013.5
20260510121554 53 72 0.0 1.0 0.00 0.00 0.00 99 1013.4
20260510120056 52 83 0.0 1.0 0.00 0.00 0.00 99 1013.1
20260510114554 52 94 0.0 1.0 0.00 0.00 0.00 99 1013.2
20260510113055 52 0.0 0.0 0.00 0.00 0.00 99 1013.0
20260510111729 52 0.0 0.0 0.00 0.00 0.00 99 1012.8
20260510111554 52 0.0 0.0 0.00 0.00 0.00 99 1012.8
20260510110145 52 108 0.0 1.0 0.00 0.00 0.00 99 1012.7
20260510110055 52 108 0.0 1.0 0.00 0.00 0.00 99 1012.7
20260510110038 51 125 0.0 1.0 0.00 0.00 0.00 99 1012.5
20260510104651 51 125 0.0 1.0 0.00 0.00 0.00 99 1012.5
20260510104555 51 125 0.0 1.0 0.00 0.00 0.00 99 1012.5
20260510103055 51 0.0 0.0 0.00 0.00 0.00 99 1012.6
20260510101555 51 90 0.0 1.0 0.00 0.00 0.00 99 1012.7
20260510100055 51 128 0.0 1.0 0.00 0.00 0.00 99 1012.6
20260510095638 51 92 1.0 1.0 0.00 0.00 0.00 99 1012.7
20260510094555 51 141 0.0 1.0 0.00 0.00 0.00 99 1012.5
20260510093303 51 92 1.0 1.0 0.00 0.00 0.00 99 1012.7
20260510093054 51 92 1.0 1.0 0.00 0.00 0.00 99 1012.7
20260510091554 51 111 0.0 1.0 0.00 0.00 0.00 99 1012.8
20260510090135 51 96 1.0 1.0 0.00 0.00 0.00 99 1012.9
20260510090054 51 96 1.0 1.0 0.00 0.00 0.00 99 1012.9
20260510084633 51 0.0 0.0 0.00 0.00 0.00 99 1012.9
20260510084554 51 0.0 0.0 0.00 0.00 0.00 99 1012.9
20260510083054 51 0.0 0.0 0.00 0.00 0.00 99 1012.9
20260510081554 51 151 0.0 0.0 0.00 0.00 0.00 99 1013.0
20260510080055 52 157 1.0 1.0 0.00 0.00 0.00 99 1012.6
20260510074554 52 0.0 0.0 0.00 0.00 0.00 99 1012.0
20260510073055 52 0.0 0.0 0.00 0.00 0.00 99 1012.0
20260510071555 52 0.0 0.0 0.00 0.00 0.00 99 1012.3
20260510070305 52 0.0 0.0 0.00 0.00 0.00 99 1012.1
20260510070054 52 0.0 0.0 0.00 0.00 0.00 99 1012.1
20260510064813 52 0.0 0.0 0.00 0.00 0.00 99 1012.2
20260510064554 52 0.0 0.0 0.00 0.00 0.00 99 1012.2
20260510064525 51 0.0 0.0 0.00 0.00 0.00 99 1012.3
20260510064431 51 0.0 0.0 0.00 0.00 0.00 99 1012.3
20260510063208 51 0.0 0.0 0.00 0.00 0.00 99 1012.3
20260510063055 51 0.0 0.0 0.00 0.00 0.00 99 1012.3
20260510061733 51 0.0 0.0 0.00 0.00 0.00 99 1012.2
20260510061554 51 0.0 0.0 0.00 0.00 0.00 99 1012.2
20260510060055 51 0.0 0.0 0.00 0.00 0.00 99 1012.0
20260510054554 51 0.0 0.0 0.00 0.00 0.00 99 1012.0
20260510054029 51 0.0 0.0 0.00 0.00 0.00 99 1012.1
20260510053055 51 0.0 0.0 0.00 0.00 0.00 99 1012.1
20260510051554 51 0.0 0.0 0.00 0.00 0.00 99 1012.1
20260510050055 51 0.0 0.0 0.00 0.00 0.00 99 1012.2
20260510044555 51 0.0 0.0 0.00 0.00 0.00 99 1012.2
20260510043055 51 0.0 0.0 0.00 0.00 0.00 99 1012.2
20260510041555 51 0.0 0.0 0.00 0.00 0.00 99 1012.1
20260510040055 51 0.0 0.0 0.00 0.00 0.00 99 1012.1
20260510034706 51 0.0 0.0 0.00 0.00 0.00 99 1012.1
20260510034555 51 0.0 0.0 0.00 0.00 0.00 99 1012.1
20260510033054 50 0.0 0.0 0.00 0.00 0.00 99 1011.8
20260510031554 50 0.0 0.0 0.00 0.00 0.00 99 1011.8
20260510030320 50 0.0 0.0 0.00 0.00 0.00 99 1012.0
20260510030055 50 0.0 0.0 0.00 0.00 0.00 99 1012.0
20260510024554 50 0.0 0.0 0.00 0.00 0.00 99 1012.1
20260510023055 50 0.0 0.0 0.00 0.00 0.00 99 1012.0
20260510021646 50 0.0 0.0 0.00 0.00 0.00 99 1011.9
20260510021554 50 0.0 0.0 0.00 0.00 0.00 99 1011.9
20260510020056 50 0.0 0.0 0.00 0.00 0.00 99 1011.9
20260510015617 51 0.0 0.0 0.00 0.00 0.00 99 1011.9
20260510014554 51 0.0 0.0 0.00 0.00 0.00 99 1011.9
20260510013055 51 226 0.0 1.0 0.00 0.00 0.00 99 1011.7
20260510011554 51 0.0 0.0 0.00 0.00 0.00 99 1011.4
20260510010055 52 0.0 0.0 0.00 0.00 0.00 99 1011.3
20260510004554 54 0.0 0.0 0.00 0.00 0.00 99 1011.0
20260510003055 54 109 0.0 1.0 0.00 0.00 0.00 99 1010.8
20260510001628 54 109 0.0 1.0 0.00 0.00 0.00 99 1010.8
20260510001555 54 109 0.0 1.0 0.00 0.00 0.00 99 1010.8
20260510000055 54 109 0.0 1.0 0.00 0.00 0.00 99 1010.8
20260509234555 54 109 0.0 1.0 0.00 0.00 0.00 99 1010.8
20260509233054 54 157 1.0 2.0 0.00 0.00 0.00 99 1010.8
20260509231629 55 39 1.0 1.0 0.00 0.00 0.00 99 1010.7
20260509231554 55 39 1.0 1.0 0.00 0.00 0.00 99 1010.7
20260509230055 55 87 1.0 2.0 0.00 0.00 0.00 99 1011.1
20260509224837 54 117 0.0 1.0 0.00 0.00 0.00 99 1011.1
20260509224554 54 117 0.0 1.0 0.00 0.00 0.00 99 1011.1
20260509223055 54 82 1.0 2.0 0.01 0.00 0.00 99 1010.9
20260509221810 54 67 1.0 2.0 0.04 0.00 0.00 99 1011.0
20260509221555 54 67 1.0 2.0 0.04 0.00 0.00 99 1011.0
20260509220259 54 114 1.0 2.0 0.12 0.00 0.00 99 1011.3
20260509220055 54 114 1.0 2.0 0.12 0.00 0.00 99 1011.3
20260509214555 54 106 0.0 1.0 0.27 0.00 0.00 99 1011.3
20260509214023 54 135 1.0 1.0 0.28 0.00 0.00 99 1011.2
20260509213055 54 114 1.0 3.0 0.15 0.00 0.00 99 1011.3
20260509211555 54 135 1.0 1.0 0.28 0.00 0.00 99 1011.2
20260509210055 54 169 0.0 1.0 0.01 0.00 0.00 99 1011.2
20260509204555 57 342 0.0 1.0 0.01 0.00 0.00 97 1011.5
20260509203055 57 342 0.0 1.0 0.01 0.00 0.00 97 1011.5
20260509201554 57 342 0.0 1.0 0.01 0.00 0.00 97 1011.5
20260509200055 57 342 0.0 1.0 0.01 0.00 0.00 97 1011.5
20260509194625 57 342 0.0 1.0 0.01 0.00 0.00 97 1011.5
20260509194554 57 342 0.0 1.0 0.01 0.00 0.00 97 1011.5
20260509193203 57 342 0.0 1.0 0.01 0.00 0.00 97 1011.5
20260509193055 57 342 0.0 1.0 0.01 0.00 0.00 97 1011.5
20260509191555 57 342 0.0 1.0 0.01 0.00 0.00 97 1011.5
20260509190056 57 342 0.0 1.0 0.01 0.00 0.00 97 1011.5
20260509190007 58 295 0.0 1.0 0.02 0.00 0.00 93 1011.7
20260509184638 57 342 0.0 1.0 0.01 0.00 0.00 97 1011.5
20260509184555 57 342 0.0 1.0 0.01 0.00 0.00 97 1011.5
20260509183056 58 295 0.0 1.0 0.02 0.00 0.00 93 1011.7
20260509182812 62 231 0.0 2.0 0.00 0.00 0.00 73 1011.0
20260509181555 60 214 1.0 3.0 0.01 0.00 0.00 81 1011.6
20260509180054 62 231 0.0 2.0 0.00 0.00 0.00 73 1011.0